This is the latest recevied weather packets stored in our database for station/object K6HFP. If no packets are shown the sender has not sent any weather packets the latest 10 day(s).
| Time | Temp. | Humidity | Pressure | Rain* | Wind** | Luminosity | Snow |
|---|---|---|---|---|---|---|---|
| 1777851374 | 13.33° C | 84% | 1010.9 hPa | 1.27 mm | - | 22 W/m² | - |
| 1777851070 | 13.33° C | 85% | 1011 hPa | 0 mm | - | 20 W/m² | - |
| 1777850767 | 13.33° C | 83% | 1011 hPa | 0 mm | - | 20 W/m² | - |
| 1777850464 | 13.89° C | 82% | 1011.1 hPa | 0 mm | - | 18 W/m² | - |
| 1777850162 | 13.89° C | 81% | 1011.1 hPa | 0 mm | - | 16 W/m² | - |
| 1777849859 | 13.89° C | 79% | 1011 hPa | 0 mm | - | 15 W/m² | - |
| 1777849555 | 13.89° C | 78% | 1010.8 hPa | 0 mm | - | 16 W/m² | - |
| 1777849253 | 13.89° C | 78% | 1011.1 hPa | 0 mm | - | 16 W/m² | - |
| 1777848949 | 13.89° C | 79% | 1011.1 hPa | 0 mm | - | 17 W/m² | - |
| 1777848644 | 13.89° C | 78% | 1011 hPa | 0 mm | - | 18 W/m² | - |
| 1777848342 | 13.89° C | 79% | 1011.3 hPa | 0 mm | - | 19 W/m² | - |
| 1777848040 | 13.89° C | 79% | 1011.1 hPa | 0 mm | - | 21 W/m² | - |
| 1777847738 | 13.89° C | 79% | 1011 hPa | 0 mm | - | 20 W/m² | - |
| 1777847433 | 13.89° C | 78% | 1010.8 hPa | 0 mm | - | 20 W/m² | - |
| 1777847132 | 13.89° C | 79% | 1010.8 hPa | 0 mm | - | 20 W/m² | - |
| 1777846829 | 13.89° C | 79% | 1010.7 hPa | 0 mm | - | 20 W/m² | - |
| 1777846527 | 13.89° C | 79% | 1011.1 hPa | 0 mm | - | 23 W/m² | - |
| 1777846224 | 14.44° C | 76% | 1011 hPa | 0 mm | - | 25 W/m² | - |
| 1777845920 | 14.44° C | 73% | 1010.6 hPa | 0 mm | - | 22 W/m² | - |
| 1777845617 | 14.44° C | 72% | 1010.9 hPa | 0 mm | - | 24 W/m² | - |
| 1777845315 | 14.44° C | 72% | 1011 hPa | 0 mm | - | 33 W/m² | - |
| 1777845011 | 15° C | 73% | 1011.1 hPa | 0 mm | - | 43 W/m² | - |
| 1777844710 | 15° C | 71% | 1010.8 hPa | 0 mm | - | 55 W/m² | - |
| 1777844406 | 15° C | 70% | 1010.7 hPa | 0 mm | - | 74 W/m² | - |
| 1777844105 | 15° C | 70% | 1010.5 hPa | 0 mm | - | 110 W/m² | - |
* Rain latest hour (hover to see other rain measurements)
** Current wind speed in m/s (hover to see current wind gust speed)